{"data":{"norad_id":60460,"epoch":"2026-05-25T03:30:29.907936Z","epoch_age_seconds":58860,"freshness":"FRESH","line1":"1 60460U 24148C   26145.14617949  .00008350  00000+0  34588-3 0  9990","line2":"2 60460  34.9992 307.4409 0006163 351.2857   8.7750 15.23166100 98625","mean_motion":15.231661,"eccentricity":0.0006163,"inclination_deg":34.9992,"raan_deg":307.4409,"arg_perigee_deg":351.2857,"mean_anomaly_deg":8.775,"bstar":0.00034588,"rev_number":9862,"period_min":94.539919185439,"perigee_km":492.06109297442,"apogee_km":500.53452131771,"semimajor_km":6874.4348071461,"source":"CELESTRAK","updated_at":"2026-05-25T13:38:02.085152Z"}}